TimeCDT,TemperatureF,Dew PointF,Humidity,Sea Level PressureIn,VisibilityMPH,Wind Direction,Wind SpeedMPH,Gust SpeedMPH,PrecipitationIn,Events,Conditions,WindDirDegrees,DateUTC
12:54 AM,61.0,52.0,72,30.16,10.0,Calm,Calm,-,0.00,,Overcast,0,2013-08-03 05:54:00
1:54 AM,60.1,53.1,78,30.16,10.0,East,3.5,-,0.00,,Overcast,90,2013-08-03 06:54:00
2:54 AM,57.9,54.0,87,30.16,10.0,North,5.8,-,N/A,,Overcast,10,2013-08-03 07:54:00
3:54 AM,59.0,53.1,81,30.17,10.0,NE,3.5,-,N/A,,Overcast,50,2013-08-03 08:54:00
4:54 AM,55.9,53.1,90,30.17,10.0,North,3.5,-,N/A,,Mostly Cloudy,10,2013-08-03 09:54:00
5:54 AM,55.0,52.0,89,30.17,10.0,NE,4.6,-,N/A,,Mostly Cloudy,50,2013-08-03 10:54:00
6:54 AM,55.9,53.1,90,30.21,10.0,NE,3.5,-,N/A,,Overcast,40,2013-08-03 11:54:00
7:54 AM,57.0,54.0,89,30.22,10.0,ENE,5.8,-,N/A,,Overcast,60,2013-08-03 12:54:00
8:54 AM,61.0,54.0,78,30.23,10.0,East,4.6,-,N/A,,Overcast,90,2013-08-03 13:54:00
9:54 AM,63.0,51.1,65,30.23,10.0,ESE,10.4,-,N/A,,Overcast,110,2013-08-03 14:54:00
10:54 AM,66.0,51.1,59,30.24,10.0,East,9.2,-,N/A,,Overcast,100,2013-08-03 15:54:00
11:54 AM,68.0,52.0,56,30.23,10.0,ESE,9.2,-,N/A,,Mostly Cloudy,120,2013-08-03 16:54:00
12:54 PM,71.1,52.0,51,30.23,10.0,ESE,12.7,-,N/A,,Clear,110,2013-08-03 17:54:00
1:54 PM,72.0,51.1,48,30.22,10.0,SE,9.2,-,N/A,,Mostly Cloudy,140,2013-08-03 18:54:00
2:54 PM,75.0,52.0,44,30.22,10.0,ESE,12.7,-,N/A,,Mostly Cloudy,110,2013-08-03 19:54:00
3:54 PM,75.0,50.0,41,30.21,10.0,East,11.5,20.7,N/A,,Scattered Clouds,100,2013-08-03 20:54:00
4:54 PM,75.0,50.0,41,30.20,10.0,ESE,9.2,-,N/A,,Partly Cloudy,110,2013-08-03 21:54:00
5:54 PM,73.9,48.9,41,30.19,10.0,SE,12.7,-,N/A,,Partly Cloudy,140,2013-08-03 22:54:00
6:54 PM,73.0,50.0,44,30.18,10.0,ESE,11.5,-,N/A,,Clear,120,2013-08-03 23:54:00
7:54 PM,71.1,51.1,49,30.17,10.0,ESE,10.4,-,N/A,,Clear,110,2013-08-04 00:54:00
8:54 PM,64.9,53.1,65,30.16,10.0,East,6.9,-,N/A,,Scattered Clouds,90,2013-08-04 01:54:00
9:54 PM,63.0,52.0,67,30.16,10.0,East,6.9,-,N/A,,Mostly Cloudy,90,2013-08-04 02:54:00
10:54 PM,60.1,53.1,78,30.18,10.0,East,5.8,-,N/A,,Scattered Clouds,90,2013-08-04 03:54:00
11:54 PM,63.0,50.0,63,30.20,10.0,East,8.1,-,N/A,,Overcast,100,2013-08-04 04:54:00